Weather History for KLAF - December, 2012

Change the Weather History Date:

Friday, December 21, 2012

  Actual Average Record
Temperature  
Mean Temperature 27 °F 29 °F  
Max Temperature 31 °F 36 °F 62 °F (1967)
Min Temperature 22 °F 21 °F -5 °F (1985)
Degree Days  
Heating Degree Days 38 36  
Month to date heating degree days 489 699  
Since 1 July heating degree days 1823 1800  
Cooling Degree Days 0 0  
Month to date cooling degree days 0 0  
Year to date cooling degree days 1181 983  
Moisture  
Dew Point 22 °F    
Average Humidity 83    
Maximum Humidity 92    
Minimum Humidity 74    
Precipitation  
Precipitation T in 0.08 in 1.71 in (2013)
Month to date precipitation 2.32 1.78  
Year to date precipitation 30.02 35.85  
Sea Level Pressure  
Sea Level Pressure 29.78 in    
Wind  
Wind Speed 19 mph (WNW)    
Max Wind Speed 33 mph    
Max Gust Speed 49 mph    
Visibility 7 miles    
Events Snow    
T = Trace of Precipitation, MM = Missing Value Source: NWS Daily Summary

Daily Weather History Graph

Daily Weather History Graph

Search for Another Location

Airport or City:

Trip Planner

Search our weather history database for the weather conditions in past years. The results will help you decide how hot, cold, wet, or windy it might be!

Date:

Astronomy

Dec. 21, 2012 Rise Set
Actual Time 8:07 AM EST 5:24 PM EST
Civil Twilight 7:36 AM EST 5:55 PM EST
Nautical Twilight 7:02 AM EST 6:29 PM EST
Astronomical Twilight 6:29 AM EST 7:03 PM EST
Moon 1:12 PM EST (12/21) 1:53 AM EST (12/21)
Length of Visible Light 10h 18m
Length of Day
9h 17m
Waxing Gibbous, 64% of the Moon is Illuminated
Dec 21
Waxing Gibbous
Dec 28
Full
Jan 4
Last Quarter
Jan 11
New
Jan 18
First Quarter

Hourly Weather History & Observations

Time (EST) Temp. Windchill Dew Point Humidity Pressure Visibility Wind Dir Wind Speed Gust Speed Precip Events Conditions
12:06 AM 30.2 °F 15.9 °F 28.4 °F 93% 29.44 in 7.0 mi WNW 26.5 mph 42.6 mph 0.00 in Snow Light Snow
12:16 AM 30.2 °F 15.9 °F 26.6 °F 86% 29.46 in 9.0 mi WNW 26.5 mph 42.6 mph 0.00 in Snow Light Snow
12:28 AM 30.2 °F 16.2 °F 26.6 °F 86% 29.46 in 4.0 mi WNW 25.3 mph 38.0 mph 0.00 in Snow Light Snow
12:36 AM 30.2 °F 15.4 °F 26.6 °F 86% 29.46 in 1.8 mi WNW 28.8 mph 39.1 mph 0.00 in Snow Light Snow
12:54 AM 30.0 °F 15.4 °F 27.0 °F 88% 29.49 in 1.8 mi WNW 27.6 mph 36.8 mph 0.00 in Snow Light Snow
1:01 AM 30.2 °F 15.9 °F 26.6 °F 86% 29.48 in 2.5 mi WNW 26.5 mph 38.0 mph 0.00 in Snow Light Snow
1:19 AM 30.2 °F 15.4 °F 26.6 °F 86% 29.49 in 5.0 mi WNW 28.8 mph 41.4 mph 0.00 in Snow Light Snow
1:54 AM 30.0 °F 15.7 °F 26.1 °F 85% 29.53 in 5.0 mi WNW 26.5 mph 41.4 mph 0.00 in Snow Light Snow
2:52 AM 28.4 °F 13.8 °F 24.8 °F 86% 29.56 in 4.0 mi WNW 25.3 mph 39.1 mph 0.00 in Snow Light Snow
2:54 AM 28.0 °F 13.0 °F 25.0 °F 88% 29.57 in 4.0 mi WNW 26.5 mph 41.4 mph 0.00 in Snow Light Snow
3:54 AM 27.0 °F 11.3 °F 24.1 °F 89% 29.62 in 5.0 mi WNW 27.6 mph 36.8 mph 0.00 in Snow Light Snow
4:02 AM 26.6 °F 11.1 °F 24.8 °F 93% 29.60 in 6.0 mi WNW 26.5 mph 36.8 mph 0.00 in Snow Light Snow
4:54 AM 27.0 °F 11.0 °F 23.0 °F 85% 29.65 in 2.5 mi WNW 28.8 mph 43.7 mph 0.00 in Snow Light Snow
5:08 AM 26.6 °F 10.8 °F 21.2 °F 80% 29.64 in 5.0 mi WNW 27.6 mph 36.8 mph 0.00 in Snow Light Snow
5:26 AM 26.6 °F 12.0 °F 21.2 °F 80% 29.65 in 2.5 mi WNW 23.0 mph 35.7 mph 0.00 in Snow Light Snow
5:37 AM 26.6 °F 11.7 °F 21.2 °F 80% 29.66 in 4.0 mi WNW 24.2 mph 36.8 mph 0.00 in Snow Light Snow
5:54 AM 25.0 °F 9.9 °F 21.9 °F 88% 29.69 in 1.8 mi WNW 23.0 mph 38.0 mph 0.00 in Snow Light Snow
6:22 AM 24.8 °F 9.6 °F 21.2 °F 86% 29.69 in 2.5 mi WNW 23.0 mph 33.4 mph 0.00 in Snow Light Snow
6:41 AM 24.8 °F 9.3 °F 21.2 °F 86% 29.71 in 4.0 mi WNW 24.2 mph 35.7 mph 0.00 in Snow Light Snow
6:54 AM 25.0 °F 9.9 °F 21.0 °F 85% 29.73 in 8.0 mi WNW 23.0 mph 32.2 mph 0.00 in Snow Light Snow
7:17 AM 24.8 °F 9.6 °F 19.4 °F 80% 29.73 in 8.0 mi WNW 23.0 mph 33.4 mph 0.00 in Snow Light Snow
7:46 AM 24.8 °F 11.1 °F 19.4 °F 80% 29.76 in 2.0 mi WNW 18.4 mph 36.8 mph 0.00 in Snow Light Snow
7:54 AM 24.1 °F 9.4 °F 19.9 °F 84% 29.78 in 3.0 mi WNW 20.7 mph 33.4 mph 0.00 in Snow Light Snow
8:54 AM 24.1 °F 9.0 °F 19.0 °F 81% 29.82 in 8.0 mi WNW 21.9 mph 32.2 mph 0.00 in   Overcast
9:54 AM 24.1 °F 9.4 °F 19.0 °F 81% 29.86 in 10.0 mi WNW 20.7 mph 31.1 mph N/A   Overcast
10:54 AM 24.1 °F 10.6 °F 19.0 °F 81% 29.91 in 10.0 mi WNW 17.3 mph 27.6 mph N/A   Overcast
11:54 AM 25.0 °F 9.2 °F 19.0 °F 78% 29.91 in 10.0 mi NW 25.3 mph 32.2 mph N/A   Overcast
12:54 PM 26.1 °F 12.7 °F 19.0 °F 75% 29.94 in 10.0 mi WNW 18.4 mph 26.5 mph N/A   Overcast
1:54 PM 27.0 °F 15.6 °F 19.9 °F 75% 29.96 in 10.0 mi WNW 13.8 mph 26.5 mph N/A   Overcast
2:54 PM 27.0 °F 12.8 °F 19.9 °F 75% 29.98 in 10.0 mi NW 21.9 mph 31.1 mph N/A   Overcast
3:54 PM 27.0 °F 14.7 °F 19.9 °F 75% 30.02 in 10.0 mi NW 16.1 mph 26.5 mph N/A   Overcast
4:54 PM 27.0 °F 17.3 °F 19.9 °F 75% 30.05 in 10.0 mi NW 10.4 mph 19.6 mph N/A   Overcast
5:54 PM 27.0 °F 15.6 °F 19.0 °F 72% 30.10 in 10.0 mi NW 13.8 mph 20.7 mph N/A   Overcast
6:54 PM 26.1 °F 16.8 °F 19.0 °F 75% 30.12 in 10.0 mi NNW 9.2 mph 19.6 mph N/A   Overcast
7:54 PM 25.0 °F 14.2 °F 17.1 °F 72% 30.16 in 10.0 mi NW 11.5 mph - N/A   Overcast
8:54 PM 24.1 °F 12.5 °F 17.1 °F 75% 30.17 in 10.0 mi NW 12.7 mph 20.7 mph N/A   Overcast
9:54 PM 24.1 °F 12.5 °F 17.1 °F 75% 30.17 in 10.0 mi WNW 12.7 mph - N/A   Overcast
10:54 PM 24.1 °F 12.5 °F 17.1 °F 75% 30.19 in 10.0 mi NW 12.7 mph 18.4 mph N/A   Overcast
11:54 PM 21.9 °F 9.8 °F 15.1 °F 75% 30.20 in 10.0 mi WNW 12.7 mph - N/A   Overcast